Weather History for Bakersfield, CA

Change the Weather History Date:

Thursday, February 6, 2014

  Actual Average Record
Temperature  
Mean Temperature 52 °F 51 °F  
Max Temperature 57 °F 61 °F 77 °F (1930)
Min Temperature 46 °F 41 °F 27 °F (1989)
Degree Days  
Heating Degree Days 13    
Month to date heating degree days 102  
Since 1 July heating degree days 1209  
Cooling Degree Days 0    
Month to date cooling degree days 0  
Year to date cooling degree days 9  
Moisture  
Dew Point 41 °F    
Average Humidity 72    
Maximum Humidity 93    
Minimum Humidity 51    
Precipitation  
Precipitation 0.04 in 0.05 in 0.68 in (1966)
Month to date precipitation 0.04 0.27  
Year to date precipitation 0.16 1.43  
Since 1 July precipitation 1.23 3.51  
Snow  
Snow 0.00 in - - ()
Month to date snowfall 0.0  
Since 1 July snowfall 0.0  
Snow Depth 0.00 in    
Sea Level Pressure  
Sea Level Pressure 30.01 in    
Wind  
Wind Speed 4 mph (North)    
Max Wind Speed 17 mph    
Max Gust Speed 20 mph    
Visibility 9 miles    
Events Rain    
T = Trace of Precipitation, MM = Missing Value Source: NWS Daily Summary

Daily Weather History Graph

Daily Weather History Graph

Search for Another Location

Airport:

Trip Planner

Search our weather history database for the weather conditions in past years. The results will help you decide how hot, cold, wet, or windy it might be!

Date:

Astronomy

Feb. 06, 2014 Rise Set
Actual Time 6:51 AM PST 5:29 PM PST
Civil Twilight 6:25 AM PST 5:55 PM PST
Nautical Twilight 5:54 AM PST 6:26 PM PST
Astronomical Twilight 5:25 AM PST 6:55 PM PST
Moon 11:05 AM PST (2/6) 12:12 AM PST (2/6)
Length of Visible Light 11h 30m
Length of Day
10h 37m
Waxing Crescent, 50% of the Moon is Illuminated
Feb 6
Waxing Crescent
Feb 14
Full
Feb 22
Last Quarter
Mar 1
New
Mar 8
First Quarter

Hourly Weather History & Observations

Time (PST) Temp. Dew Point Humidity Pressure Visibility Wind Dir Wind Speed Gust Speed Precip Events Conditions
12:54 AM 48.9 °F 34.0 °F 56% 30.08 in 9.0 mi Calm Calm - N/A   Overcast
1:54 AM 48.0 °F 33.1 °F 56% 30.09 in 9.0 mi Calm Calm - N/A   Overcast
2:54 AM 48.0 °F 34.0 °F 58% 30.08 in 9.0 mi South 4.6 mph - N/A   Overcast
3:54 AM 48.0 °F 35.1 °F 61% 30.05 in 8.0 mi East 3.5 mph - N/A   Partly Cloudy
4:54 AM 46.9 °F 35.1 °F 63% 30.04 in 8.0 mi Calm Calm - N/A   Overcast
5:54 AM 46.9 °F 35.1 °F 63% 30.03 in 8.0 mi Calm Calm - N/A   Overcast
6:54 AM 46.0 °F 34.0 °F 63% 30.02 in 8.0 mi Calm Calm - N/A   Mostly Cloudy
7:54 AM 48.9 °F 35.1 °F 59% 30.02 in 6.0 mi ESE 4.6 mph - N/A   Haze
8:54 AM 51.1 °F 35.1 °F 54% 30.03 in 7.0 mi SSE 6.9 mph - N/A   Overcast
9:54 AM 51.1 °F 39.0 °F 63% 30.03 in 6.0 mi East 4.6 mph - 0.02 in   Haze
10:54 AM 54.0 °F 37.9 °F 55% 30.00 in 10.0 mi East 8.1 mph - N/A   Overcast
11:54 AM 55.9 °F 36.0 °F 47% 29.95 in 10.0 mi East 8.1 mph - 0.00 in Rain Light Rain
12:54 PM 55.9 °F 37.9 °F 51% 29.92 in 9.0 mi SW 3.5 mph - 0.00 in Rain Light Rain
1:54 PM 57.0 °F 42.1 °F 57% 29.91 in 10.0 mi NNW 9.2 mph - 0.00 in Rain Light Rain
2:54 PM 55.0 °F 46.0 °F 72% 29.91 in 10.0 mi North 5.8 mph - 0.02 in   Overcast
3:54 PM 55.0 °F 44.1 °F 67% 29.91 in 10.0 mi Calm Calm - 0.00 in   Overcast
4:54 PM 55.0 °F 44.1 °F 67% 29.93 in 10.0 mi East 3.5 mph - N/A   Overcast
5:54 PM 54.0 °F 46.0 °F 75% 29.95 in 10.0 mi NNE 3.5 mph - N/A   Overcast
6:54 PM 53.1 °F 48.9 °F 86% 29.97 in 10.0 mi WSW 4.6 mph - 0.00 in   Overcast
7:54 PM 52.0 °F 48.0 °F 86% 29.98 in 10.0 mi West 3.5 mph - N/A   Overcast
8:54 PM 51.1 °F 46.9 °F 86% 30.01 in 10.0 mi West 5.8 mph - N/A   Overcast
9:54 PM 50.0 °F 46.9 °F 89% 30.04 in 10.0 mi WNW 5.8 mph - N/A   Overcast
10:05 PM 50.0 °F 46.9 °F 89% 30.05 in 10.0 mi NW 5.8 mph - N/A   Overcast
10:19 PM 50.0 °F 46.9 °F 89% 30.05 in 9.0 mi NNW 3.5 mph - N/A   Overcast
10:54 PM 50.0 °F 48.0 °F 93% 30.05 in 8.0 mi North 3.5 mph - N/A   Overcast
11:37 PM 50.0 °F 48.0 °F 93% 30.07 in 9.0 mi Calm Calm - N/A   Overcast
11:54 PM 50.0 °F 48.0 °F 93% 30.06 in 8.0 mi NW 4.6 mph - N/A   Overcast